Stations météo

réclame
Mon MeteoGroup
Straubing, Allemagne (10788): Température de l'air & dewpoint: 28.06.2020 03:00:00 - 04.07.2020 03:00:00 (CEST)Straubing, Allemagne (10788): Température de l'air 5cm & Température de l'air -5cm: 28.06.2020 03:00:00 - 04.07.2020 03:00:00 (CEST)Straubing, Allemagne (10788): Température de l'air -20cm & Température de l'air -100cm: 28.06.2020 03:00:00 - 04.07.2020 03:00:00 (CEST)Straubing, Allemagne (10788): Vitesse du vent & gusts: 28.06.2020 03:00:00 - 04.07.2020 03:00:00 (CEST)Straubing, Allemagne (10788): Direction du vent: 28.06.2020 03:00:00 - 04.07.2020 03:00:00 (CEST)Straubing, Allemagne (10788): reduced air pressure: 28.06.2020 03:00:00 - 04.07.2020 03:00:00 (CEST)Straubing, Allemagne (10788): visibility: 28.06.2020 03:00:00 - 04.07.2020 03:00:00 (CEST)Straubing, Allemagne (10788): Ensoleillement: 28.06.2020 03:00:00 - 04.07.2020 03:00:00 (CEST)Straubing, Allemagne (10788): Quantités de précipitations: 28.06.2020 03:00:00 - 04.07.2020 03:00:00 (CEST)
Date & Time tt [°C] td [°C] tt 5cm [°C] tt -5cm [°C] tt -20cm [°C] tt -100cm [°C] ff [km/h] ff [knt] fx [km/h] fx [knt] dd ppp [hPa] vv [km] sd [min] rr [mm]
04.07.2020 03:00:00 11,5 10,2 10,7 15,0 20,1 17,1 7 4 9 5 SSW 1020,8 40 0 0,0
04.07.2020 02:00:00 11,7 10,5 10,5 15,6 20,5 17,1 8 5 10 5 SSW 1020,6 44 0 0,0
04.07.2020 01:00:00 13,1 11,0 10,5 16,3 20,9 17,1 0 0 10 5 N 1020,2 54 0 0,0
04.07.2020 00:00:00 14,0 11,2 11,6 17,1 21,3 17,1 6 3 10 5 SW 1020,0 56 0 0,0
03.07.2020 23:00:00 14,8 11,5 13,0 18,2 21,7 17,1 6 4 9 5 SSW 1019,5 62 0 0,0
03.07.2020 22:00:00 17,9 11,9 14,7 19,6 22,0 17,1 6 3 8 5 W 1018,8 75 0 0,0
03.07.2020 21:00:00 19,5 11,5 17,1 21,3 22,2 17,1 7 4 10 5 WSW 1018,1 75 43 0,0
03.07.2020 20:00:00 21,8 10,2 20,7 23,6 22,2 17,1 8 4 16 9 W 1017,3 70 60 0,0
03.07.2020 19:00:00 22,1 8,7 22,5 24,9 22,1 17,1 8 5 16 9 NW 1017,0 62 54 0,0
03.07.2020 18:00:00 22,6 9,1 24,6 25,9 21,9 17,1 11 6 22 12 NW 1017,0 47 60 0,0
03.07.2020 17:00:00 22,2 9,3 24,6 26,0 21,6 17,1 11 6 25 13 NW 1017,1 72 59 0,0
03.07.2020 16:00:00 21,6 9,9 25,9 25,0 21,4 17,1 13 7 27 15 WNW 1017,3 52 20 0,0
03.07.2020 15:00:00 21,6 8,9 24,4 25,5 21,1 17,1 15 8 26 14 WNW 1017,4 74 24 0,0
03.07.2020 14:00:00 20,8 10,4 24,4 25,0 20,8 17,1 11 6 24 13 WNW 1017,8 66 26 0,0
03.07.2020 13:00:00 20,5 12,0 24,9 24,9 20,4 17,1 10 6 21 12 W 1018,0 70 32 0,0
03.07.2020 12:00:00 20,2 11,8 24,7 24,3 20,0 17,1 13 7 24 13 W 1018,1 72 41 0,0
03.07.2020 11:00:00 19,1 12,1 24,4 23,4 19,7 17,1 13 7 26 14 WNW 1018,1 60 50 0,0
03.07.2020 10:00:00 17,5 10,8 23,1 22,1 19,5 17,0 11 6 20 11 NW 1018,2 59 51 0,0
03.07.2020 09:00:00 16,5 12,0 18,6 19,9 19,5 17,0 10 6 21 12 WNW 1018,1 59 21 0,0
03.07.2020 08:00:00 16,2 13,1 17,2 18,1 19,6 17,0 11 6 23 12 W 1017,5 71 30 0,0
03.07.2020 07:00:00 14,8 12,5 14,1 16,6 19,8 17,0 8 4 13 7 W 1017,4 62 0 0,0
03.07.2020 06:00:00 14,7 12,6 13,6 16,6 20,1 17,0 9 5 16 9 W 1016,6 65 0 0,0
03.07.2020 05:00:00 15,1 13,2 13,8 17,1 20,4 17,0 8 4 14 8 W 1015,9 51 0 0,0
03.07.2020 04:00:00 16,0 13,7 14,8 17,6 20,6 17,0 9 5 16 8 W 1015,5 52 0 0,0
03.07.2020 03:00:00 16,4 14,7 15,4 17,9 20,9 17,0 9 5 17 9 W 1015,4 48 0 0,0
03.07.2020 02:00:00 16,2 15,5 15,7 18,4 21,1 17,0 8 5 10 5 SW 1014,9 37 0 0,0
03.07.2020 01:00:00 15,6 15,0 15,0 18,5 21,4 17,0 4 2 14 8 ESE 1015,1 48 0 0,0
03.07.2020 00:00:00 16,3 15,0 15,9 19,3 21,7 17,0 9 5 19 11 SW 1014,1 56 0 0,0
02.07.2020 23:00:00 17,3 16,4 16,9 20,0 22,0 17,0 16 8 22 12 SSW 1013,7 39 0 1,0
02.07.2020 22:00:00 18,0 16,8 17,2 20,9 22,2 17,0 19 10 23 12 SSW 1014,0 21 0 2,1
02.07.2020 21:00:00 19,7 17,3 18,5 22,2 22,3 17,0 9 5 14 7 SW 1012,8 22 0 0,2
02.07.2020 20:00:00 20,4 16,8 20,4 23,5 22,3 16,9 8 5 12 7 S 1012,3 69 4 0,0
02.07.2020 19:00:00 21,0 16,2 21,3 25,7 22,0 16,9 5 3 9 5 E 1012,0 75 39 0,0
02.07.2020 18:00:00 20,9 15,7 22,8 26,7 21,7 16,9 3 2 15 8 SSE 1011,9 75 53 0,0
02.07.2020 17:00:00 20,4 14,6 23,2 26,4 21,5 16,9 3 2 9 5 NW 1012,5 75 56 0,0
02.07.2020 16:00:00 18,2 15,7 20,9 22,3 21,5 16,9 6 4 13 7 SE 1013,2 68 8 0,0
02.07.2020 15:00:00 16,1 15,2 16,0 20,0 21,8 16,9 9 5 15 8 N 1013,2 75 0 4,2
02.07.2020 14:00:00 15,5 14,9 15,7 23,3 21,5 16,9 7 4 42 23 NW 1014,0 2,1 13 13,1
02.07.2020 13:00:00 22,5 18,6 23,7 24,4 21,3 16,9 10 5 16 9 E 1011,6 44 2 0,4
02.07.2020 12:00:00 21,4 17,0 22,6 24,2 21,1 16,9 8 4 13 7 ESE 1012,3 57 1 0,0
02.07.2020 11:00:00 21,1 17,0 22,5 24,7 20,9 16,9 9 5 17 9 SSE 1012,4 59 18 0,0
02.07.2020 10:00:00 20,8 16,5 24,5 22,8 20,8 16,8 5 3 13 7 NW 1012,2 48 7 0,0
02.07.2020 09:00:00 19,7 16,5 21,9 21,7 20,7 16,8 9 5 13 7 W 1012,2 44 4 0,0
02.07.2020 08:00:00 18,4 16,5 18,7 20,1 20,8 16,8 5 3 10 5 SSE 1012,4 34 1 0,0
02.07.2020 07:00:00 19,0 16,0 20,5 19,4 21,0 16,8 2 1 8 5 ESE 1011,7 42 41 0,0
02.07.2020 06:00:00 16,7 15,7 15,8 18,3 21,3 16,8 4 2 12 6 NW 1012,0 54 0 0,0
02.07.2020 05:00:00 16,9 15,8 15,8 18,7 21,6 16,8 5 3 9 5 W 1011,5 47 0 0,0
02.07.2020 04:00:00 16,9 15,8 15,9 18,9 21,9 16,8 8 4 11 6 WSW 1011,1 50 0 0,0
02.07.2020 03:00:00 17,1 16,2 16,6 19,6 22,2 16,8 11 6 26 14 E 1010,8 53 0 0,8
02.07.2020 02:00:00 17,8 15,7 16,8 20,1 22,6 16,8 16 9 28 15 NW 1011,5 6 0 1,1
02.07.2020 01:00:00 19,1 15,4 17,5 20,6 22,9 16,8 6 3 27 15 NE 1011,4 9 0 0,0
02.07.2020 00:00:00 19,2 15,5 18,5 21,3 23,3 16,8 10 6 16 9 SSW 1011,0 75 0 0,0
01.07.2020 23:00:00 20,4 15,1 19,2 22,0 23,6 16,8 15 8 18 10 SE 1010,0 72 0 0,0
01.07.2020 22:00:00 21,3 15,4 20,0 23,5 23,9 16,8 10 5 42 23 SW 1008,8 64 0 0,0
01.07.2020 21:00:00 23,3 15,6 22,7 25,6 24,0 16,8 33 18 45 24 SW 1008,2 59 26 0,0
01.07.2020 20:00:00 26,6 19,4 26,0 28,0 24,0 16,8 6 3 10 5 S 1007,1 62 18 0,0
01.07.2020 19:00:00 27,7 17,8 27,5 30,3 23,7 16,8 6 4 18 10 SSW 1007,3 75 38 0,0
01.07.2020 18:00:00 28,7 16,0 30,1 32,0 23,3 16,8 7 4 12 6 S 1007,3 66 60 0,0
01.07.2020 17:00:00 28,7 15,6 31,2 32,3 22,8 16,8 4 2 16 9 SW 1007,5 61 60 0,0
01.07.2020 16:00:00 28,4 16,4 30,9 31,4 22,3 16,8 7 4 17 9 SSW 1007,7 72 47 0,0
01.07.2020 15:00:00 27,6 15,0 30,1 30,7 21,7 16,8 10 5 22 12 SW 1008,3 75 55 0,0
01.07.2020 14:00:00 27,1 16,4 29,4 30,2 21,0 16,8 15 8 31 17 SW 1009,0 59 60 0,0
01.07.2020 13:00:00 26,3 14,9 30,4 29,5 20,4 16,8 11 6 22 12 S 1009,7 75 60 0,0
01.07.2020 12:00:00 24,0 16,6 27,8 27,9 19,8 16,8 12 7 20 11 E 1010,5 56 60 0,0
01.07.2020 11:00:00 22,4 15,5 26,4 26,2 19,3 16,8 8 4 13 7 E 1011,4 75 60 0,0
01.07.2020 10:00:00 20,6 15,0 24,1 23,4 18,9 16,8 9 5 13 7 E 1012,1 69 60 0,0
01.07.2020 09:00:00 19,1 14,2 21,5 20,7 18,8 16,8 8 4 12 6 E 1012,3 69 60 0,0
01.07.2020 08:00:00 17,1 14,3 19,5 18,0 18,9 16,8 7 4 9 5 E 1012,7 42 60 0,0
01.07.2020 07:00:00 14,5 12,6 16,2 15,8 19,1 16,8 6 3 9 5 SSW 1013,1 75 43 0,0
01.07.2020 06:00:00 12,3 11,0 11,9 14,8 19,4 16,8 5 3 8 4 SSW 1013,1 42 0 0,0
01.07.2020 05:00:00 11,3 10,6 10,5 15,1 19,8 16,8 5 3 7 4 SSW 1013,2 43 0 0,0
01.07.2020 04:00:00 14,0 12,0 11,6 15,6 20,1 16,8 4 2 6 4 W 1012,9 51 0 0,0
01.07.2020 03:00:00 12,3 11,2 11,3 16,1 20,5 16,8 5 3 8 4 SSW 1013,2 43 0 0,0
01.07.2020 02:00:00 14,4 12,3 11,9 16,6 20,8 16,8 6 3 10 5 N 1012,8 58 0 0,0
01.07.2020 01:00:00 14,4 12,3 13,2 17,3 21,2 16,8 5 3 11 6 SW 1012,9 48 0 0,0
01.07.2020 00:00:00 15,7 13,2 13,8 18,0 21,6 16,8 6 3 9 5 SW 1012,6 54 0 0,0
30.06.2020 23:00:00 17,6 12,4 14,5 18,9 21,9 16,8 5 3 11 6 WSW 1012,2 75 0 0,0
30.06.2020 22:00:00 20,0 11,9 16,4 20,2 22,2 16,8 6 3 9 5 W 1011,5 65 0 0,0
30.06.2020 21:00:00 21,4 12,0 18,8 21,7 22,4 16,8 5 3 16 9 W 1011,1 70 52 0,0
30.06.2020 20:00:00 23,4 11,4 22,0 24,0 22,4 16,8 8 5 20 11 WNW 1010,8 75 60 0,0
30.06.2020 19:00:00 23,8 11,0 23,7 25,4 22,3 16,8 13 7 26 14 W 1010,5 56 60 0,0
30.06.2020 18:00:00 23,7 10,2 23,4 26,8 22,1 16,8 12 7 29 15 WNW 1010,8 51 57 0,0
30.06.2020 17:00:00 24,3 9,9 26,2 28,0 21,8 16,8 15 8 31 17 W 1011,0 69 60 0,0
30.06.2020 16:00:00 23,9 11,0 27,0 27,7 21,4 16,8 16 8 31 17 W 1011,3 65 40 0,0
30.06.2020 15:00:00 23,0 10,8 26,5 27,8 20,9 16,8 13 7 22 12 W 1011,8 48 20 0,0
30.06.2020 14:00:00 22,1 11,0 25,6 26,5 20,5 16,8 14 8 22 12 W 1012,2 57 8 0,0
30.06.2020 13:00:00 22,1 11,6 24,8 25,3 20,1 16,8 16 8 26 14 W 1012,7 75 18 0,0
30.06.2020 12:00:00 21,4 10,7 24,7 25,7 19,6 16,8 11 6 20 11 WSW 1013,4 73 37 0,0
30.06.2020 11:00:00 20,2 10,9 22,4 24,8 19,1 16,8 9 5 19 10 WSW 1013,9 75 52 0,0
30.06.2020 10:00:00 19,4 11,3 23,1 22,8 18,9 16,8 9 5 16 9 WSW 1014,4 60 60 0,0
30.06.2020 09:00:00 18,3 13,5 21,3 19,1 18,8 16,8 4 2 10 6 SW 1014,5 55 35 0,0
30.06.2020 08:00:00 16,8 12,9 18,5 17,8 18,9 16,8 9 5 14 8 W 1014,8 54 54 0,0
30.06.2020 07:00:00 14,8 12,7 16,3 15,7 19,1 16,8 5 3 7 4 S 1015,0 46 43 0,0
30.06.2020 06:00:00 12,3 11,7 11,5 14,9 19,4 16,8 4 2 11 6 E 1015,0 25 0 0,0
30.06.2020 05:00:00 14,6 12,5 12,4 15,3 19,7 16,8 7 4 11 6 WNW 1014,2 65 0 0,0
30.06.2020 04:00:00 13,6 12,2 11,0 15,6 20,0 16,8 3 2 14 7 W 1014,1 57 0 0,0
30.06.2020 03:00:00 14,9 12,8 12,7 16,2 20,3 16,7 5 3 9 5 WSW 1013,9 62 0 0,0
30.06.2020 02:00:00 14,1 13,0 12,7 16,9 20,6 16,7 7 4 11 6 SSW 1013,8 57 0 0,0
30.06.2020 01:00:00 15,8 13,8 15,3 17,6 20,9 16,7 5 3 17 9 SW 1013,9 71 0 0,0
30.06.2020 00:00:00 16,7 14,1 15,7 18,1 21,2 16,7 13 7 17 9 SW 1013,5 71 0 0,0
29.06.2020 23:00:00 16,5 14,1 15,8 18,3 21,6 16,7 11 6 19 11 SW 1013,5 59 0 0,0
29.06.2020 22:00:00 17,0 14,0 15,8 19,3 21,8 16,7 12 7 17 9 SW 1013,3 62 0 0,0
29.06.2020 21:00:00 18,5 14,2 17,8 21,0 22,0 16,7 14 7 29 16 SW 1012,6 70 20 0,0
29.06.2020 20:00:00 20,5 13,2 19,7 23,1 21,9 16,7 11 6 18 10 SW 1012,3 75 35 0,0
29.06.2020 19:00:00 22,0 12,3 22,4 24,7 21,8 16,7 10 6 22 12 W 1012,2 75 51 0,0
29.06.2020 18:00:00 22,0 12,6 23,6 25,4 21,5 16,7 12 7 26 14 W 1012,4 51 49 0,0
29.06.2020 17:00:00 20,9 13,5 22,6 25,5 21,2 16,6 16 9 29 15 WSW 1012,9 75 27 0,0
29.06.2020 16:00:00 20,0 13,5 21,6 25,2 20,8 16,6 14 7 23 12 SW 1013,3 61 10 0,0
29.06.2020 15:00:00 19,3 14,0 22,1 25,6 20,5 16,6 5 3 17 9 W 1013,9 63 35 0,0
29.06.2020 14:00:00 17,2 13,8 19,3 21,6 20,4 16,6 8 5 15 8 NW 1015,0 62 3 0,0
29.06.2020 13:00:00 16,3 14,0 19,1 20,6 20,4 16,6 10 5 18 10 WNW 1015,2 75 0 0,0
29.06.2020 12:00:00 15,5 13,5 15,8 19,1 20,5 16,6 9 5 13 7 WNW 1015,6 50 0 0,1
29.06.2020 11:00:00 15,6 14,3 16,4 18,5 20,6 16,6 8 5 15 8 WSW 1015,1 35 0 0,2
29.06.2020 10:00:00 14,8 13,9 14,7 18,3 20,9 16,5 8 4 12 7 W 1014,6 4,8 0 1,4
29.06.2020 09:00:00 15,0 14,1 15,0 18,2 21,1 16,5 6 3 14 8 W 1014,8 41 0 2,9
29.06.2020 08:00:00 15,0 14,2 14,9 18,4 21,4 16,5 6 3 19 11 WNW 1014,8 2,1 0 1,3
29.06.2020 07:00:00 14,9 13,9 14,8 18,3 21,7 16,5 7 4 14 7 W 1014,5 33 0 0,2
29.06.2020 06:00:00 15,0 14,1 14,7 18,4 22,0 16,5 7 4 11 6 NW 1014,7 19 0 2,8
29.06.2020 05:00:00 15,6 14,5 15,0 19,0 22,3 16,5 8 4 16 9 WNW 1015,0 25 0 0,8
29.06.2020 04:00:00 16,3 14,6 15,8 19,7 22,7 16,5 7 4 18 10 WNW 1015,1 46 0 0,7
29.06.2020 03:00:00 17,4 16,5 17,0 20,3 23,0 16,5 11 6 21 12 NW 1015,3 16 0 1,7
29.06.2020 02:00:00 18,4 17,6 18,0 20,9 23,3 16,4 7 4 13 7 WNW 1014,9 8 0 1,7
29.06.2020 01:00:00 18,6 17,8 18,2 21,2 23,6 16,4 8 4 11 6 WSW 1014,9 20 0 0,3
29.06.2020 00:00:00 18,9 17,7 18,3 21,6 23,9 16,4 7 4 9 5 SSW 1015,1 27 0 0,4
28.06.2020 23:00:00 19,3 17,1 18,2 21,9 24,3 16,4 5 3 19 10 NE 1014,6 52 0 0,4
28.06.2020 22:00:00 20,1 17,3 18,6 22,9 24,6 16,4 6 4 25 14 W 1014,9 19 0 1,0
28.06.2020 21:00:00 23,7 16,4 22,5 24,3 24,9 16,4 7 4 13 7 W 1013,0 73 0 0,0
28.06.2020 20:00:00 24,9 16,2 24,1 26,2 25,0 16,4 8 4 19 10 NW 1012,9 62 39 0,0
28.06.2020 19:00:00 26,0 15,5 26,1 27,6 25,0 16,4 11 6 27 14 WNW 1012,9 56 55 0,0
28.06.2020 18:00:00 26,7 15,5 27,8 29,1 25,0 16,3 18 10 31 17 W 1012,9 75 46 0,0
28.06.2020 17:00:00 26,7 14,5 27,0 30,1 24,7 16,3 16 9 29 16 WNW 1013,1 75 53 0,0
28.06.2020 16:00:00 27,6 16,0 30,5 31,6 24,4 16,3 16 9 29 16 W 1013,3 50 59 0,0
28.06.2020 15:00:00 28,0 15,8 31,7 32,0 23,9 16,3 10 5 20 11 W 1013,4 75 43 0,0
28.06.2020 14:00:00 26,7 17,1 30,5 32,1 23,3 16,3 14 7 22 12 NNW 1014,1 56 50 0,0
28.06.2020 13:00:00 26,6 18,3 31,8 31,7 22,7 16,3 6 3 15 8 SW 1014,4 53 57 0,0
28.06.2020 12:00:00 25,7 17,3 31,6 30,1 22,1 16,2 5 3 13 7 WSW 1015,0 53 60 0,0
28.06.2020 11:00:00 23,8 17,0 27,6 27,4 21,8 16,2 10 5 19 10 SE 1015,2 57 60 0,0
28.06.2020 10:00:00 22,2 16,9 25,8 25,0 21,5 16,2 9 5 18 10 ESE 1015,3 55 60 0,0
28.06.2020 09:00:00 20,5 15,7 22,9 22,6 21,5 16,2 11 6 17 9 ESE 1015,6 43 60 0,0
28.06.2020 08:00:00 19,2 15,3 21,0 20,5 21,7 16,2 11 6 16 9 SSE 1016,0 63 60 0,0
28.06.2020 07:00:00 17,6 15,0 18,6 18,8 22,0 16,2 9 5 12 7 SE 1015,9 44 44 0,0
28.06.2020 06:00:00 15,3 13,8 14,7 18,0 22,4 16,2 7 4 11 6 SSE 1016,2 57 0 0,0
28.06.2020 05:00:00 15,5 13,9 13,2 18,4 22,8 16,1 0 0 10 6 N 1016,4 49 0 0,0
28.06.2020 04:00:00 16,5 14,0 14,7 18,9 23,3 16,1 7 4 13 7 SE 1016,2 59 0 0,0
28.06.2020 03:00:00 15,8 14,7 14,4 19,5 23,7 16,1 5 3 8 4 E 1016,5 26 0 0,0

tt = Température de l'air
td = dewpoint
tt 5cm = Température de l'air 5cm
tt -5cm = Température de l'air -5cm
tt -20cm = Température de l'air -20cm
tt -100cm = Température de l'air -100cm
ff = Vitesse du vent
fx = gusts
dd = Direction du vent
ppp = reduced air pressure
vv = visibility
sd = Ensoleillement
rr = Quantités de précipitations

stations d'obs. à proximité